Home > Weather > Amarillo > Past weeks

Flag for USA Past Weather in Amarillo, Texas, USA — Yesterday and Last 2 Weeks

Now
62 °F

Light rain. Overcast.


Feels Like: 62 °F
Forecast: 62 / 82 °F
Wind: 7 mph from Southeast

Location: Amarillo International Airport

Current Time: Aug 26, 2016 at 12:13:27 AM

Latest Report: Aug 25, 2016 at 10:53 PM


Visibility: 10 mi

Pressure: 30.07 "Hg (26.36 "Hg at 1117m altitude)

Humidity: 93%

Dew Point: 60 °F

Location of AmarilloLocation

Past Weather in Amarillo — Graph

°F

Amarillo Temperature Yesterday

Maximum temperature yesterday: 82 °F (at 3:53 PM)
Minimum temperature yesterday: 60 °F (at 7:58 AM)
Average temperature yesterday: 68 °F

High & Low Weather Summary for the Past Weeks

 TemperatureHumidityPressure
High94 °F (Aug 11, 2:53 PM)96% (Aug 20, 6:02 AM)30.21 "Hg (Aug 20, 6:02 AM)
Low57 °F (Aug 21, 5:53 AM)23% (Aug 17, 4:53 PM)29.72 "Hg (Aug 19, 5:53 PM)
Average73 °F63%29.96 "Hg
* Reported Aug 10 10:53 PM — Aug 25 10:53 PM, Amarillo, Weather by CustomWeather, © 2016

Note: Actual official high and low records may vary slightly from our data, if they occured in-between our weather recording intervals... More about our weather records

Advertising

Amarillo Weather History for the Previous 24 Hours

Scroll right to see more
 ConditionsComfort  
Time TempWeatherWind HumidityBarometerVisibility
10:53 PM
Thu, Aug 25
62 °FLight rain. Overcast.7 mph93%30.07 "Hg10 mi
9:53 PM62 °FRain. Fog.No wind93%30.09 "Hg5 mi
8:53 PM63 °FThundershowers. Fog.6 mph87%30.07 "Hg6 mi
7:53 PM65 °FLight rain. More clouds than sun.9 mph85%30.02 "Hg10 mi
6:53 PM66 °FThundershowers. Partly sunny.6 mph87%29.99 "Hg10 mi
5:53 PM69 °FThunderstorms. Partly sunny.14 mph79%29.98 "Hg10 mi
5:03 PM75 °FThunderstorms. Scattered clouds.18 mph60%30.10 "Hg10 mi
4:53 PM80 °FThundershowers. Sunny.22 mph52%29.96 "Hg10 mi
3:53 PM82 °FSunny.8 mph48%29.98 "Hg10 mi
2:53 PM79 °FSunny.8 mph54%30.02 "Hg10 mi
1:53 PM77 °FPassing clouds.5 mph58%30.04 "Hg10 mi
12:53 PM75 °FPassing clouds.8 mph64%30.06 "Hg10 mi
11:53 AM73 °FSunny.3 mph66%30.07 "Hg10 mi
10:53 AM69 °FPassing clouds.6 mph76%30.08 "Hg9 mi
9:53 AM65 °FFog.7 mph87%30.07 "Hg6 mi
8:53 AM62 °FFog.7 mph93%30.06 "Hg5 mi
7:58 AM60 °FFog.5 mph96%30.18 "Hg3 mi
6:53 AM62 °FClear.6 mph86%30.02 "Hg10 mi
5:53 AM63 °FClear.12 mph87%29.99 "Hg10 mi
4:53 AM61 °FClear.9 mph93%29.99 "Hg10 mi
3:53 AM61 °FClear.6 mph90%29.98 "Hg10 mi
2:53 AM63 °FClear.7 mph87%29.99 "Hg10 mi
1:53 AM65 °FClear.8 mph81%29.98 "Hg10 mi
12:53 AM68 °FClear.8 mph70%30.00 "Hg10 mi
Weather by CustomWeather, © 2016

See weather overviewHow to use our weather pages